Regional Weather Roundup
Issued by NWS Wakefield, VA

Home | Current Version | Previous Version | Text Only | Print | Product List | Glossary Off
Versions: 1 2 3 4 5 6 7 8 9 10 11 12 13 14 15 16 17 18 19 20 21 22 23 24 25 26 27 28 29 30 31 32 33 34 35 36 37 38 39 40 41 42 43 44 45 46 47 48 49 50

477
ASUS41 KAKQ 251415
RWRAKQ

REGIONAL WEATHER ROUNDUP
NATIONAL WEATHER SERVICE WAKEFIELD VA
900 AM EST SUN FEB 25 2018

Note: "fair" indicates few or no clouds below 12,000 feet with no
significant weather and/or obstructions to visibility. * = Denotes
station may not report precipitation (e.g., rain,snow,etc.),
thunder or fog.

VAZ042-051-052>054-056-251500-
NORTHERN VIRGINIA

CITY           SKY/WX    TMP DP  RH WIND       PRES   REMARKS
WASH NATIONAL  LGT RAIN  49  48  97 N3        30.02F FOG
DULLES         LGT RAIN  47  47 100 SE5       30.00F FOG
FORT BELVOIR   LGT RAIN  48  48 100 CALM      30.01F FOG
QUANTICO       LGT RAIN  49  49 100 NE5       30.03R
FREDERICKSBRG* LGT RAIN  48  48 100 NW6       30.01R
STAFFORD*      LGT RAIN  49  49 100 N6        30.05R
WARRENTON      RAIN      49  47  91 CALM      29.99F
CULPEPER*      HVY RAIN  49  47  95 CALM      30.00F
MANASSAS*      RAIN      48  47  96 CALM      30.01F FOG
LEESBURG*      LGT RAIN  45  45 100 SE3       30.00F
WINCHESTER     LGT RAIN  45  45 100 CALM      30.00R
FRONT ROYAL*   CLOUDY    46  46 100 CALM      29.97S
LURAY*         LGT RAIN  46  46 100 CALM      29.98S
$$

VAZ048-049-060>072-079>083-251500-
CENTRAL AND SOUTH CENTRAL VIRGINIA

CITY           SKY/WX    TMP DP  RH WIND       PRES   REMARKS
RICHMOND       PTSUNNY   65  60  84 S16       29.95F
CHESTERFIELD*  FAIR      65  60  84 SW9       29.96F
PETERSBURG*    FAIR      67  59  76 S8        29.98S
HANOVER        FOG       55  55 100 NW3       29.97S VSB 1/2
TAPPAHANNOCK*  PTSUNNY   55  55 100 CALM      29.97S FOG
QUINTON*       FAIR      66  61  83 S13G26    29.95F
CHARLOTTSVILLE RAIN      49  48  97 SE12      29.98R FOG
GORDONSVILLE*  CLOUDY    48  48 100 CALM      30.01R FOG
ORANGE*        RAIN      46  46 100 CALM      30.02R
LOUISA*        FOG       48  48 100 N7        30.04R VSB 1/4
BUMPASS*       CLOUDY    50  48  95 CALM      29.97S VSB 1/4
FARMVILLE*     CLOUDY   N/A N/A N/A CALM      29.99R FOG
CREWE*         PTSUNNY   64  64 100 SW7G17    29.96S
FORT PICKETT*  PTSUNNY   65  64  97 S16G24    29.97S
CHASE CITY*    PTSUNNY   66  62  86 S8        29.99R
CLARKSVILLE*   FAIR      66  61  82 S15G25    29.99R
SOUTH HILL*    FAIR      67  63  86 S16       30.05S
LAWRENCEVILLE* FAIR      68  61  78 SW13G20   30.00R
EMPORIA*       FAIR      68  61  77 S9G16     30.02S
$$

VAZ088>098-251500-
SOUTHEAST VIRGINIA

CITY           SKY/WX    TMP DP  RH WIND       PRES   REMARKS
NORFOLK        FAIR      68  63  84 S17       29.99F
VIRGINIA BEACH PTSUNNY   68  60  75 SW16G24   30.00F
NORFOLK NAVAL  PTSUNNY   69  61  75 SW13G21   30.01F
WEST POINT*    FAIR      67  60  78 S9        29.97F
SALUDA*        FAIR      61  61 100 S8        29.97S
NEWPORT NEWS   FAIR      67  61  81 SW14      29.99S
LANGLEY AFB    FAIR      67  63  86 S16       29.99F
FORT EUSTIS    FAIR      66  61  84 S7        29.96F
WILLIAMSBURG*  FAIR      66  64  94 S7G16     29.99S
HR EXEC AP*    FAIR      70  63  78 SW10G20   30.01F
FRANKLIN*      FAIR      68  62  80 SW10G18   30.01F
US460-WAKEFLD  FAIR      68  62  81 SW10G20   29.98F
$$

VAZ020-022-025-037-045-251500-
WEST CENTRAL AND SOUTHWEST VIRGINIA

CITY           SKY/WX    TMP DP  RH WIND       PRES   REMARKS
STAUNTON*      LGT RAIN  47  46  99 CALM      30.02R
WAYNESBORO*    CLOUDY    47  47  99 CALM      30.00R
HOT SPRINGS VA CLOUDY    51  50  97 W21G29    30.01R
LYNCHBURG      LGT RAIN  51  51 100 S7        30.01S FOG
DANVILLE       CLOUDY    67  59  75 W12G25    30.04R
SOUTH BOSTON*  PTSUNNY   68  58  69 SW8G22    30.00R
MARTINSVILLE   LGT RAIN  60  58  91 W3        30.07R
ROANOKE        CLOUDY    58  55  90 W7        30.03R
BLACKSBURG     DRIZZLE   58  53  84 W5        30.08R
DUBLIN*        CLOUDY    59  53  79 W6        30.07R
MARION*        RAIN      57  53  89 W14       30.09R
HILLSVILLE*    CLOUDY    56  53  88 W8        30.07R
RICHLANDS*     LGT RAIN  55  50  83 SW16G23   30.04F
WISE*          CLOUDY    54  50  87 SW12      30.04F
ABINGDON*      DRIZZLE   58  58  98 SW13      30.08S
$$

MDZ021>025-VAZ099-100-251500-
SOUTHERN MARYLAND AND THE DELMARVA PENINSULA

CITY           SKY/WX    TMP DP  RH WIND       PRES   REMARKS
PATUXENT RIVER FOG       48  48 100 E3        29.96F VSB 1/16
BAY BRIDGE APT RAIN      46  46 100 CALM      29.99R VSB 1/2
LEONARDTOWN    CLOUDY    50  48  93 CALM      29.98S VSB 1/4
DOVER          FOG       46  46  99 E7        29.96F VSB 3/8
GEORGETOWN     FOG       51  50  96 CALM      29.96F VSB<1/4
EASTON         FOG       48  46  93 E3        30.00S VSB 1/4
CAMBRIDGE      FOG       50  50 100 CALM      29.96F VSB 0
SALISBURY      FAIR      57  57 100 S9        29.96F
OCEAN CITY     FOG       49  49 100 S7        29.98F VSB 1/2
WALLOPS ISLAND CLOUDY    54  54 100 S8        29.98F
ACCOMACK*      FAIR      67  61  81 SW17G29   29.98S
$$

NCZ012>017-030>032-251500-
NORTH CENTRAL AND EASTERN NORTH CAROLINA

CITY           SKY/WX    TMP DP  RH WIND       PRES   REMARKS
ROANOKE RAPIDS FAIR      68  63  83 SW13      30.02S
RALEIGH        PTSUNNY   69  62  78 SW20      30.05R
ELIZABETH CITY FAIR      69  65  86 SW17      30.06S
AHOSKIE*       FAIR      69  63  81 S8        30.03F
EDENTON*       FAIR      70  65  83 SW13G20   30.07S
CURRITUCK*     CLOUDY    64  60  86 SW13G24   30.06S
KILL DEVIL HLS FAIR      69  68  99 SW13G18   30.06F
MANTEO         FAIR      68  62  81 SW21G26   30.08F
CAPE HATTERAS  FAIR      68  64  87 SW9       30.12F
TARBORO*       NOT AVBL
GOLDSBORO      FAIR      71  64  79 SW16      30.06S
WASHINGTON     PTSUNNY   69  64  84 SW13      30.09R
GREENVILLE     FAIR      70  64  83 SW13G20   30.09R
NEW BERN       FAIR      71  65  81 SW13G18   30.11S
WILMINGTON     FAIR      73  65  75 SW13      30.12S
$$

VAZ048-251500-
ELSEWHERE

CITY           SKY/WX    TMP DP  RH WIND       PRES   REMARKS
HARRISBURG PA  LGT RAIN  45  43  93 E7        29.98F
BALTIMORE      LGT RAIN  45  45 100 VRB7      30.03R FOG
ANNAPOLIS      LGT RAIN  48  48 100 NW6       30.02R FOG
ANDREWS AFB    RAIN      47  46  99 NW5         N/A  FOG
PHILADELPHIA   LGT RAIN  45  43  93 E6        29.99F
HENDERSON NC   FAIR      65  58  78 SW12G18   30.01S
GREENSBORO     CLOUDY    65  59  81 W15       30.05R
ROCKY MOUNT    FAIR      70  62  76 S14G23    30.04F
$$

VAZ100-251500-
MARINE

STATION/POSITION TIME  TEMP    WIND        PRES    WAVE   SWELL
                       AIR SEA DIR/SP/G            HT/PER HT/PER
                 (UTC) (F)     (DEG/KT/KT) (MB)    (FT/S) (FT/S)
BRANDYWINE LGT   1342   46      90/  7/  8 1015.3F
CAPE MAY NJ      1348   46 43  110/  7/  8 1014.5F
LEWES DE         1348      44   CALM  /  2 1014.6F
15NM E FENWICK I 1350   46 43  200/ 12/ 14 1015.5F   2/ 9   2/ 9
OCEAN-CITY-INLET 1348   44 43  200/  7/ 10 1015.6F
WACHAPREAGUE VA  1348   56 53  210/  9/ 11 1015.4F
THOMAS POINT MD  1400   45 42  320/ 17/ 22   N/A
GOOSES REEF MD   1400   43 42  360/  6/  6 1018.0    0
COVE POINT MD    1348   44      CALM  /  2 1015.1F
SOLOMONS ISLAND  1348   46 43   80/  3/  4 1014.2F
BISHOPS HEAD MD  1348   48 49  140/  4/  6 1014.9F
PINEY POINT MD   1342          150/  2/  3   N/A
POTOMAC MD       1400   45 43  280/  4/  4 1015.5    0
CAMBRIDGE MD     1348   48 48              1015.3F
LEWISETTA VA     1348   48 49  140/  2/  2 1014.2F
RAPPAHANNOCK LGT 1348          180/ 17/ 18 1015.7F
YORK RVR RNG VA  1348   60     220/ 19/ 22 1015.5S
YORKTOWN VA      1348   65 47  210/  9/ 12 1014.9S
DOMINION TERM VA 1348   61     220/ 12/ 14 1015.9F
KIPTOPEKE VA     1348      48  200/ 12/ 13   N/A
CAPE HENRY VA    1348   68     200/ 14/ 20   N/A
WILLOUBY STN VA  1348   66     210/ 16/ 19 1015.5F
S CRANEY ISL VA  1348   65     210/ 14/ 17 1015.6F
CAPE HENRY BUOY  1400      46                N/A     2/10
CAPE CHARLES BUO 1351      45                N/A     3/ 9
64NM E OF VA BCH 1350   55 50  210/ 16/ 17 1018.3F   4/ 9   2/ 9
DUCK PIER NC     1348   67 46  210/ 16/ 19 1017.6F
44100 DUCK FRF   1345      48                N/A     3/ 9
44056 DUCK FRF   1400      47                N/A     2/10
OREGON INLET NC  1342   62 57  200/ 13/ 14 1019.2F
HATTERAS NC      1348      61  220/  7/ 12 1019.7F
DIAMOND SHLS NC  1400   72 74  240/ 19/ 25 1020.4
CAPE LOOKOUT NC  1400          200/ 12/ 16 1020.4F
$$




USA.gov is the U.S. government's official web portal to all federal, state and local government web resources and services.